Location: Unspecified
(54.1780°N, 0.0000°E)
Time: 09:07:33
(UTC+00:00)

Explorer 7 - Pass Details

Date: 21 June 2019
Orbit: 485 x 680 km, 50.3° (Epoch: 24 July)

Event Time Altitude Azimuth Distance (km) Brightness Sun altitude
Rises 10:15:09 0° 234° (SW) 2,815 10.4 53.4°
Reaches altitude 10° 10:17:29 10° 226° (SW) 1,949 9.8 53.6°
Maximum altitude 10:21:37 38° 159° (SSE) 971 9.7 54.0°
Drops below altitude 10° 10:26:00 10° 92° (E) 2,059 10.2 54.4°
Sets 10:28:31 0° 85° (E) 2,996 10.8 54.7°
